Location: Newark
(13.6797°N, 8.5297°E)
Time: 02:13:33
(UTC+00:00)

A-11 Canister half - Pass Details

Date: 25 January 2020
Orbit: 1517 x 1683 km, 47.2° (Epoch: 19 February)

Event Time Altitude Azimuth Distance (km) Brightness Sun altitude
Rises 20:05:44 0° 213° (SSW) 4,861 12.2 -38.9°
Reaches altitude 10° 20:08:56 10° 210° (SSW) 3,853 11.5 -39.7°
Enters shadow 20:15:43 48° 190° (S) 2,004 9.5 -41.3°
Maximum altitude 20:18:38 67° 130° (SE) 1,698 - -42.0°
Drops below altitude 10° 20:27:58 10° 49° (NE) 3,726 - -44.2°
Sets 20:31:00 0° 47° (NE) 4,692 - -44.9°
